Location: Delmar
(42.6220°N, 73.8326°W)
Time: 00:56:58
(UTC+00:00)

CZ-2D R/B - Visible Passes

Search period start: 27 February 2021 00:00
Search period end: 09 March 2021 00:00
Orbit: 520 x 538 km, 97.4° (Epoch: 26 February)

Date Brightness Start Highest point End Pass type
(mag) Time Alt. Az. Time Alt. Az. Time Alt. Az.
28 Feb 6.7 00:20:52 10° WSW 00:22:35 13° W 00:24:17 10° WNW visible
01 Mar 6.5 00:09:18 10° SW 00:11:47 17° W 00:14:18 10° NW visible
01 Mar 6.0 23:58:02 10° SSW 00:01:02 22° W 00:04:02 10° NW visible
02 Mar 5.5 23:46:57 10° SSW 23:50:17 29° W 23:53:38 10° NW visible
03 Mar 4.9 23:35:59 10° SSW 23:39:33 39° W 23:43:08 10° NNW visible
04 Mar 4.2 23:25:07 10° S 23:28:49 53° W 23:32:34 10° NNW visible
05 Mar 3.5 23:14:20 10° S 23:18:07 73° WSW 23:21:57 10° NNW visible
06 Mar 7.2 10:48:59 10° ENE 10:50:27 12° E 10:51:55 10° ESE visible
